FW4317 Weather Reports


time (UTC)temp
C
wind
direction
speed
KPH
gust
KPH
rain 1hr
cm
rain 24hr
cm
rain mn
cm
humidity
%
barometer
mb
20260504050517 19 203 1.6 6.4 0.00 0.00 0.00 54 1011.2
20260504045535 19 203 1.6 9.7 0.00 0.00 0.00 53 1011.2
20260504044515 19 203 1.6 6.4 0.00 0.00 0.00 53 1011.2
20260504043515 19 203 1.6 8.0 0.00 0.00 0.00 53 1011.2
20260504042515 20 203 0.0 11.3 0.00 0.00 0.00 53 1011.3
20260504041535 20 203 1.6 9.7 0.00 0.00 0.00 52 1011.3
20260504040515 20 204 1.6 8.0 0.00 0.00 0.00 51 1011.3
20260504035515 20 204 1.6 6.4 0.00 0.00 0.00 51 1011.4
20260504034515 20 204 1.6 8.0 0.00 0.00 0.00 51 1011.4
20260504033515 20 204 1.6 8.0 0.00 0.00 0.00 50 1011.3
20260504032515 21 204 0.0 9.7 0.00 0.00 0.00 49 1011.3
20260504031515 21 204 0.0 11.3 0.00 0.00 0.00 48 1011.3
20260504030515 21 204 0.0 4.8 0.00 0.00 0.00 47 1011.2
20260504025515 21 204 0.0 4.8 0.00 0.00 0.00 45 1011.2
20260504024535 22 204 0.0 6.4 0.00 0.00 0.00 45 1011.1
20260504023515 22 204 1.6 9.7 0.00 0.00 0.00 44 1010.9
20260504022515 22 204 1.6 4.8 0.00 0.00 0.00 44 1010.9
20260504021515 22 204 1.6 11.3 0.00 0.00 0.00 43 1010.8
20260504020535 22 204 0.0 3.2 0.00 0.00 0.00 43 1010.7
20260504015515 22 204 0.0 6.4 0.00 0.00 0.00 43 1010.7
20260504014516 23 204 0.0 3.2 0.00 0.00 0.00 42 1010.6
20260504013515 23 204 1.6 8.0 0.00 0.00 0.00 41 1010.5
20260504012515 23 204 0.0 3.2 0.00 0.00 0.00 40 1010.5
20260504011535 23 204 0.0 3.2 0.00 0.00 0.00 39 1010.5
20260504010515 24 204 0.0 3.2 0.00 0.00 0.00 39 1010.6
20260504005515 24 204 0.0 3.2 0.00 0.00 0.00 39 1010.5
20260504004515 25 204 0.0 3.2 0.00 0.00 0.00 37 1010.5
20260504003515 25 204 0.0 3.2 0.00 0.00 0.00 35 1010.5
20260504002515 25 204 0.0 3.2 0.00 0.00 0.00 34 1010.5
20260504001555 26 204 0.0 4.8 0.00 0.00 0.00 32 1010.5
20260504000515 26 204 0.0 6.4 0.00 0.00 0.00 31 1010.5
20260503235535 27 204 1.6 6.4 0.00 0.00 0.00 29 1010.7
20260503234515 27 204 1.6 8.0 0.00 0.00 0.00 29 1010.7
20260503233515 28 205 1.6 12.9 0.00 0.00 0.00 28 1010.7
20260503232515 28 205 1.6 9.7 0.00 0.00 0.00 30 1010.7
20260503231515 28 203 1.6 11.3 0.00 0.00 0.00 31 1010.7
20260503230515 28 201 1.6 14.5 0.00 0.00 0.00 30 1010.7
20260503225535 28 202 1.6 6.4 0.00 0.00 0.00 30 1010.8
20260503224515 28 203 1.6 11.3 0.00 0.00 0.00 30 1010.7
20260503223515 28 202 1.6 9.7 0.00 0.00 0.00 31 1010.8
20260503222535 28 202 1.6 9.7 0.00 0.00 0.00 30 1010.9
20260503221535 28 201 1.6 12.9 0.00 0.00 0.00 29 1011.0
20260503220535 28 200 1.6 8.0 0.00 0.00 0.00 29 1011.0
20260503215535 28 200 1.6 12.9 0.00 0.00 0.00 30 1011.1
20260503214515 28 203 3.2 14.5 0.00 0.00 0.00 30 1011.2
20260503213515 28 205 1.6 11.3 0.00 0.00 0.00 29 1011.3
20260503212515 28 199 3.2 12.9 0.00 0.00 0.00 29 1011.4
20260503211515 28 197 1.6 11.3 0.00 0.00 0.00 31 1011.6
20260503210535 28 195 1.6 11.3 0.00 0.00 0.00 31 1011.9
20260503205515 28 195 1.6 19.3 0.00 0.00 0.00 30 1012.1
20260503204515 28 200 0.0 8.0 0.00 0.00 0.00 32 1012.2
20260503203515 28 199 1.6 12.9 0.00 0.00 0.00 33 1012.5
20260503202535 28 193 3.2 17.7 0.00 0.00 0.00 33 1012.6
20260503201515 28 168 1.6 9.7 0.00 0.00 0.00 36 1012.9
20260503200515 28 168 1.6 12.9 0.00 0.00 0.00 37 1013.0
20260503195515 28 154 3.2 14.5 0.00 0.00 0.00 39 1013.3
20260503194515 28 152 3.2 20.9 0.00 0.00 0.00 39 1013.5
20260503193555 27 148 1.6 12.9 0.00 0.00 0.00 39 1013.5
20260503192515 27 148 1.6 11.3 0.00 0.00 0.00 41 1013.7
20260503191515 27 148 1.6 17.7 0.00 0.00 0.00 41 1013.9
20260503190515 27 147 1.6 9.7 0.00 0.00 0.00 43 1014.0
20260503185515 27 147 1.6 9.7 0.00 0.00 0.00 43 1014.1
20260503184515 26 146 1.6 11.3 0.00 0.00 0.00 43 1014.3
20260503183515 26 146 3.2 16.1 0.00 0.00 0.00 44 1014.5
20260503182515 26 146 1.6 9.7 0.00 0.00 0.00 45 1014.6
20260503181515 26 146 1.6 17.7 0.00 0.00 0.00 46 1014.8
20260503180517 26 146 4.8 9.7 0.00 0.00 0.00 47 1015.1
20260503175555 25 146 1.6 14.5 0.00 0.00 0.00 47 1015.3
20260503174537 25 145 4.8 14.5 0.00 0.00 0.00 48 1015.4
20260503173517 25 144 3.2 16.1 0.00 0.00 0.00 49 1015.6
20260503172515 24 144 1.6 11.3 0.00 0.00 0.00 50 1015.7
20260503171517 24 144 3.2 11.3 0.00 0.00 0.00 51 1015.8
20260503170517 23 144 1.6 19.3 0.00 0.00 0.00 51 1015.9
20260503150517 19 114 1.6 11.3 0.00 0.00 0.00 57 1016.7
20260503130517 12 45 1.6 8.0 0.00 0.00 0.00 68 1017.2
20260503110517 11 29 3.2 9.7 0.00 0.00 0.00 62 1017.1
20260503081516 11 16 0.0 3.2 0.00 0.00 0.00 63 1018.7
20260503080517 11 16 0.0 3.2 0.00 0.00 0.00 63 1018.8
20260503072517 11 16 0.0 1.6 0.00 0.00 0.00 63 1019.1
20260503071516 11 0.0 0.0 0.00 0.00 0.00 63 1019.1
20260503070517 11 16 0.0 1.6 0.00 0.00 0.00 66 1019.1
20260503054537 12 16 0.0 3.2 0.00 0.00 0.00 61 1019.1